Regional Weather Roundup
Issued by NWS Green Bay, WI

Home | Current Version | Previous Version | Graphics & Text | Print | Product List | Glossary Off
Versions: 1 2 3 4 5 6 7 8 9 10 11 12 13 14 15 16 17 18 19 20 21 22 23 24 25 26 27 28 29 30 31 32 33 34 35 36 37 38 39 40 41 42 43 44 45 46 47 48 49 50

000
ASUS43 KGRB 211611
RWRGRB

NORTH-CENTRAL AND NORTHEAST WISCONSIN REGIONAL WEATHER ROUNDUP
NATIONAL WEATHER SERVICE GREEN BAY WI
1000 AM CST WED FEB 21 2018

WIZ005-009-010>012-018-019-211700-
NORTH CENTRAL WISCONSIN

CITY           SKY/WX    TMP DP  RH WIND       PRES   REMARKS
IRONWOOD       FAIR      11   3  70 SW8       30.47R WCI  -1
MANITOWISH WTR FAIR       6   2  81 W6        30.44R WCI  -4
ARBOR VITAE    FAIR      11   5  76 NW3       30.45R
EAGLE RIVER    FAIR      10   1  69 W7        30.44R WCI  -2
LAND O LAKES   FAIR      11   3  71 SW6       30.46R WCI   1
RHINELANDER    FAIR      11   3  70 W8        30.46R WCI  -1
PHILLIPS       FAIR       7   2  77 SW5       30.49R WCI  -1
ANTIGO         FAIR      10   2  73 NW8       30.49R WCI  -3
TOMAHAWK       FAIR      10   3  72 W7        30.50R WCI  -1
MERRILL        FAIR      11   3  68 NW6       30.52R WCI   2
$$

WIZ013-073-211700-
NORTHEAST WISCONSIN

CITY           SKY/WX    TMP DP  RH WIND       PRES   REMARKS
IRON MOUNTAIN  FAIR      14   5  67 W5        30.45R WCI   6
MARINETTE      FAIR      20   9  62 NW7       30.54R
OCONTO         FAIR      19   9  65 W10       30.55R WCI   7
$$

WIZ017-030-035>037-045-211700-
CENTRAL WISCONSIN

CITY           SKY/WX    TMP DP  RH WIND       PRES   REMARKS
MEDFORD        FAIR       8   2  76 W3        30.51R
WAUSAU         FAIR      10   3  73 W9        30.52R WCI  -3
MOSINEE        MOSUNNY   10   7  85 W8        30.54R WCI  -1
MARSHFIELD     FAIR       9   3  77 W6        30.53R WCI  -1
WISC RAPIDS    FAIR      14   4  64 NW7       30.58R WCI   4
STEVENS POINT  FAIR      11   3  71 W5        30.56R WCI   3
WAUPACA        FAIR      19   7  59 W8        30.58R WCI   9
SHAWANO        FAIR      19   8  63 W5        30.54S
CLINTONVILLE   FAIR      15   5  63 NW7       30.55S WCI   6
WAUTOMA        NOT AVBL
$$

WIZ038-039-048-051-211700-
FOX VALLEY

CITY           SKY/WX    TMP DP  RH WIND       PRES   REMARKS
NWS GREEN BAY  FAIR      20  10  65 NW10      30.55R WCI   9
APPLETON       MOSUNNY   18   7  62 NW12      30.53R WCI   5
OSHKOSH        FAIR      18   9  68 NW14      30.56R WCI   4
FOND DU LAC    FAIR      20  11  68 NW13      30.56R WCI   7
$$

WIZ022-050-052-211700-
EAST CENTRAL WISCONSIN

CITY           SKY/WX    TMP DP  RH WIND       PRES   REMARKS
EPHRAIM        FAIR      17   9  68 NW7G16    30.51R WCI   8
WASHINGTON ISL FAIR      18  13  78 W6        30.52R
STURGEON BAY   FAIR      19  10  68 NW13      30.53R WCI   6
MANITOWOC      FAIR      22  13  68 NW12      30.55R
SHEBOYGAN      FAIR      22  13  68 NW13      30.54R WCI  10
$$

LMZ563-521-522-541>543-211700-
LAKESHORE

STATION/POSITION TIME  TEMP    WIND        PRES    VSBY  WAVE
                       AIR SEA DIR/SP/G                  HT/PER
                 (UTC) (F)     (DEG/KT/KT) (MB)    (MI)  (FT/S)
SHEBOYGAN LKSHOR 1500   21     320/ 17/ 20 1034.6R
KEWAUNEE LKSHORE 1542   20     310/  9/ 13 1033.1R
NORTHPORT PIER   1540   18                 1033.2R
SISTER BAY LKSHO 1520   21     310/ 10/ 13   N/A
MENOMINEE LKSHOR 1542   19     300/  9/ 12 1033.4R
$$




USA.gov is the U.S. government's official web portal to all federal, state and local government web resources and services.